Wind_Speed
8 8 8 9 7 5 4 3 5 3 4 6 8 9 7 5 3 5 4 5 6 6 5 5 6 6 6 5 5 5 6 7 8 8 9 8 9 9 9 9 9 9 10 10 12 13 14 15 13
7 7 7 6 5 6 4 1 1 1 0 2 5 7 6 5 5 5 4 5 7 7 7 7 7 7 7 7 7 7 7 7 7 7 8 8 8 9 9 10 9 10 11 11 11 11 12 13 13
8 7 5 2 3 4 3 4 5 5 1 1 4 5 4 4 5 5 5 7 7 8 8 9 9 9 9 9 8 8 8 8 8 9 9 9 9 9 9 10 10 10 11 11 10 11 11 11 12
8 8 6 5 7 6 6 8 9 7 4 4 5 4 4 4 6 6 6 8 8 9 9 10 11 10 10 10 9 9 9 10 11 11 12 11 11 11 11 11 12 12 12 12 11 11 11 11 11
10 10 7 8 14 13 11 14 16 12 7 4 6 5 4 4 6 6 7 8 8 9 10 11 12 11 11 11 10 11 11 12 13 15 15 15 15 14 13 13 14 14 15 14 13 12 12 12 12
12 11 8 8 12 14 13 17 20 18 10 5 4 5 4 3 6 8 7 7 8 9 10 11 11 11 11 12 13 14 14 15 16 17 18 18 18 18 17 16 16 17 17 17 17 16 16 16 16
15 12 8 5 9 10 14 18 22 22 16 12 8 6 6 6 7 9 9 9 10 11 11 12 12 12 13 14 15 16 17 18 19 20 20 21 21 21 20 20 20 20 20 21 21 20 20 21 21
17 15 12 8 11 9 12 17 21 20 19 15 13 11 10 9 8 9 11 13 13 14 15 16 17 17 17 18 18 19 20 21 21 22 22 22 23 23 23 23 23 24 24 24 24 24 24 25 25
18 16 15 13 14 13 10 14 18 19 18 16 15 15 16 15 13 11 13 17 18 19 21 22 23 23 23 22 21 21 22 22 23 23 23 23 24 23 24 24 25 26 26 26 27 27 27 28 28
20 17 17 20 20 17 12 13 17 19 19 17 17 17 20 19 18 17 16 19 22 23 25 27 28 28 27 26 24 23 23 24 24 24 24 24 25 25 25 25 25 26 27 27 27 27 28 29 28
20 18 21 26 25 22 19 18 19 22 23 22 21 22 23 23 21 21 21 21 25 29 30 31 31 30 29 27 26 25 25 25 24 24 24 25 26 26 26 26 26 26 26 25 25 25 26 26 26
20 18 22 29 31 29 27 25 23 26 27 27 27 27 27 26 25 26 28 28 30 33 35 36 35 33 31 29 28 27 26 26 25 24 25 26 26 26 26 26 24 23 23 23 23 23 22 21 22
21 20 22 25 30 33 32 31 30 29 30 32 33 33 33 32 32 33 34 36 36 36 38 38 36 34 33 31 29 28 27 25 25 25 24 25 25 26 25 24 23 23 21 20 20 20 20 19 18
22 22 20 20 23 29 34 34 33 31 32 32 33 33 33 34 35 37 38 40 41 40 40 38 38 37 36 33 30 29 27 26 25 25 24 24 24 24 24 23 22 21 19 19 20 20 19 19 18
21 21 19 19 20 20 26 29 28 25 27 28 29 30 32 35 38 40 42 43 44 45 42 39 38 38 37 36 33 29 26 25 24 24 23 22 22 22 22 21 20 20 19 20 20 20 19 19 18
20 18 15 14 16 15 21 20 16 20 22 25 28 30 33 37 39 41 43 44 47 46 47 44 39 36 36 34 31 27 26 25 24 23 22 21 21 21 20 19 18 18 19 19 20 20 20 19 18
17 14 12 11 12 12 13 11 12 18 22 25 29 33 36 39 41 42 44 46 49 50 53 49 41 38 36 34 30 27 25 21 22 23 22 21 21 21 19 18 18 18 18 18 18 19 19 18 17
13 11 9 8 9 10 12 14 18 21 24 27 30 34 38 41 44 47 48 50 52 54 52 50 44 33 28 26 24 21 19 19 21 23 22 22 21 21 20 19 18 17 16 16 16 17 17 17 16
10 12 12 11 10 12 14 18 22 26 29 32 34 36 39 42 45 47 48 50 51 51 47 44 39 30 23 18 18 19 20 19 21 23 23 22 22 21 21 20 19 17 16 16 16 16 17 17 16
10 14 17 18 18 17 19 23 27 30 33 35 37 40 42 42 42 43 45 45 44 45 42 36 32 27 23 19 20 21 21 20 21 22 22 22 21 21 21 21 19 18 18 17 17 17 17 17 17
11 14 17 21 22 24 25 27 30 33 36 38 39 39 38 37 37 39 40 39 40 39 37 35 33 29 26 24 22 21 21 20 19 20 20 20 19 19 19 20 19 19 19 19 18 19 19 19 19
10 13 16 18 22 24 26 29 31 32 35 37 37 37 36 35 35 36 37 37 37 37 36 34 33 30 29 27 24 24 21 19 18 18 18 19 19 19 20 20 20 20 20 20 20 21 21 21 21
8 10 12 13 14 16 19 23 25 27 31 32 34 34 34 32 33 35 36 37 38 39 38 36 35 33 32 30 29 27 25 24 23 22 21 21 21 21 21 22 22 22 21 21 22 23 23 23 23
10 11 10 9 9 11 14 18 21 22 25 25 26 29 29 29 32 35 37 39 42 42 42 41 40 38 36 35 34 33 32 31 30 29 27 27 26 25 25 24 24 24 24 24 24 24 25 25 26
9 10 8 7 10 13 16 19 22 22 22 23 22 23 25 29 33 36 39 42 44 45 46 46 45 44 43 42 41 39 38 38 38 37 36 35 34 32 30 29 28 28 28 28 27 27 27 27 28
10 12 13 12 14 17 19 21 23 24 27 27 29 31 32 35 38 41 44 46 47 47 48 48 48 48 47 47 46 45 45 44 44 44 44 44 43 41 39 36 34 33 33 33 32 31 30 30 30
14 16 18 17 18 20 22 22 24 26 29 31 34 36 39 42 45 48 50 53 53 53 53 52 51 50 50 50 51 51 51 51 50 50 49 49 49 49 48 46 43 41 40 39 38 36 35 34 33
18 19 18 18 20 22 24 26 28 30 32 35 38 40 43 46 49 52 55 57 58 59 60 60 59 57 56 55 55 55 56 56 56 55 55 54 54 54 55 55 53 51 49 46 44 42 41 38 36
17 17 16 18 21 24 26 28 31 34 36 39 42 44 46 48 50 53 56 58 61 64 66 67 68 67 66 65 63 62 61 61 61 61 60 59 59 58 59 59 59 58 57 54 51 48 47 44 42
17 17 18 20 22 24 28 33 37 40 42 44 46 48 50 53 55 57 59 61 64 67 70 72 73 74 73 71 69 67 66 65 65 65 65 65 64 63 63 63 63 63 62 60 58 54 52 50 47
Wind_Direction
146 146 149 150 158 186 225 159 121 178 271 318 316 318 339 351 305 253 259 229 237 235 238 244 253 262 270 280 295 313 326 333 338 344 348 349 349 352 352 351 350 351 351 350 347 348 350 351 352
161 159 163 156 191 243 247 73 64 218 161 307 289 293 315 328 308 295 267 258 252 246 246 250 254 257 262 270 283 296 305 312 320 329 334 334 334 335 334 332 331 333 338 343 344 345 348 352 357
176 180 187 183 233 263 304 310 286 275 291 312 276 277 294 296 293 286 275 270 261 255 255 259 261 262 266 273 281 286 291 297 305 312 316 316 315 316 315 314 313 316 324 332 338 341 344 348 354
197 202 224 261 276 281 321 323 301 267 275 303 294 284 277 274 281 277 276 271 264 262 263 264 264 264 265 268 272 277 284 290 296 300 302 302 301 300 299 298 298 300 308 316 322 326 330 334 338
213 217 233 277 290 295 309 321 313 290 251 272 285 288 283 291 288 288 290 279 271 271 269 266 265 264 264 266 269 275 281 286 290 293 294 294 294 292 290 288 288 290 296 302 305 307 309 312 315
222 221 231 283 299 298 314 323 318 307 274 275 286 308 304 310 305 302 300 287 279 276 271 266 264 266 269 273 278 281 284 287 289 290 290 289 288 287 285 283 283 284 287 292 295 296 296 297 297
226 217 212 246 279 304 329 325 316 311 305 314 318 320 320 318 304 297 295 288 281 278 274 273 273 275 278 281 284 287 288 289 290 289 288 286 285 283 282 280 279 279 280 283 285 287 288 289 288
239 219 202 227 260 284 318 317 311 312 310 313 317 310 304 311 301 286 288 286 282 281 282 283 283 284 285 287 289 291 292 291 290 288 287 286 284 283 281 278 276 275 276 278 280 282 283 283 283
249 232 208 222 246 261 295 305 302 303 300 303 309 308 308 307 303 279 283 288 286 286 287 287 287 287 286 287 290 292 294 294 293 292 290 288 286 285 282 280 277 275 274 275 277 279 283 284 285
252 239 217 227 239 248 262 278 284 288 291 297 303 303 305 302 299 286 284 287 289 288 287 286 286 286 286 287 290 293 295 297 296 294 293 291 288 285 283 282 278 275 274 274 277 281 282 283 283
256 243 224 227 236 243 246 254 265 273 281 288 294 299 302 299 296 291 289 286 288 290 288 285 284 282 284 286 290 293 295 296 294 293 292 292 289 286 284 282 279 275 274 273 276 281 282 282 280
266 256 238 233 239 242 244 249 255 266 275 283 288 291 293 294 295 295 293 289 286 286 286 283 281 279 279 282 285 289 292 292 290 292 293 293 290 286 285 281 276 276 275 274 275 279 280 281 280
269 264 255 250 252 252 251 253 258 264 271 277 283 287 290 291 293 292 289 287 287 285 286 281 278 277 277 276 280 284 286 287 289 293 295 293 289 286 284 282 279 272 272 272 272 274 276 274 270
267 269 268 265 262 258 257 259 262 267 273 277 281 285 289 290 288 287 288 288 288 282 279 274 270 269 269 267 270 276 279 280 285 291 292 290 287 285 281 278 274 271 267 265 265 265 266 267 264
265 266 265 262 260 259 257 258 262 266 269 274 278 283 285 284 284 284 285 287 287 282 276 270 265 260 256 258 262 266 271 277 285 290 293 293 290 287 283 278 274 268 264 261 259 259 259 259 258
263 260 253 255 257 256 256 259 254 254 260 269 274 279 281 282 283 285 288 290 291 286 286 281 271 263 257 257 255 258 267 279 292 298 299 297 293 290 287 282 276 270 263 259 256 255 254 254 255
257 245 235 232 239 238 247 246 239 251 259 265 268 274 278 281 283 285 288 291 292 291 294 293 286 274 264 256 252 257 261 276 294 298 298 296 294 292 289 284 278 273 266 259 254 251 249 250 249
243 233 225 224 233 236 237 234 242 250 253 259 265 271 276 279 282 285 289 292 295 298 301 301 296 285 267 257 254 260 263 281 292 293 292 292 291 291 289 285 280 275 268 260 253 248 247 245 243
235 228 227 226 232 233 236 236 237 240 246 253 261 268 274 278 283 287 290 292 295 301 305 304 305 297 281 267 267 276 281 286 288 288 287 286 286 284 284 281 276 271 265 258 251 249 247 243 241
244 240 235 230 234 234 233 233 236 239 247 256 262 267 272 277 282 285 289 295 300 304 309 311 315 313 304 301 302 295 288 285 284 283 282 280 278 276 276 275 270 264 260 255 251 250 250 246 243
253 248 242 237 238 243 247 249 252 253 258 262 267 270 273 277 283 287 292 298 303 305 309 315 318 322 317 314 316 311 296 284 280 280 279 275 271 269 267 268 265 261 257 253 251 251 253 251 246
276 261 259 252 249 250 256 265 269 271 272 272 273 275 276 278 284 289 292 296 300 305 310 314 316 317 316 313 312 313 301 287 281 279 275 272 268 264 260 258 256 255 255 253 253 253 255 255 254
316 295 287 274 262 261 265 277 286 288 284 279 275 277 277 280 283 288 292 296 301 306 309 312 313 313 311 309 305 304 298 291 285 278 273 268 263 259 256 254 251 250 251 252 253 254 256 258 259
323 316 305 284 279 283 286 291 304 309 298 290 283 281 281 285 287 289 293 298 302 305 308 309 309 308 306 302 299 295 290 287 283 279 274 268 263 259 255 253 253 251 251 251 252 253 255 257 260
320 320 310 290 298 305 305 308 314 317 315 316 315 311 306 301 297 295 297 300 303 305 306 306 306 304 302 299 295 290 285 281 277 274 272 269 266 261 256 252 253 254 253 252 252 253 254 255 257
318 316 316 319 326 324 321 322 322 319 318 320 320 316 311 308 304 302 302 302 302 303 303 302 301 299 297 295 291 288 284 279 275 271 268 266 264 262 259 254 252 252 253 253 253 253 253 254 255
311 309 308 311 318 321 323 325 322 320 319 319 318 315 313 310 309 308 307 306 306 305 303 300 298 295 293 290 287 284 280 277 274 270 267 264 261 259 258 257 253 251 250 252 253 253 253 253 254
308 307 305 302 311 317 320 322 321 322 321 320 318 316 313 312 311 309 309 308 307 306 304 302 299 296 293 290 286 282 278 275 272 269 266 263 260 258 256 256 254 252 251 250 250 252 253 254 254
310 313 313 311 311 314 318 321 323 323 321 319 318 316 315 313 311 310 309 308 307 306 305 303 301 299 296 292 288 284 279 274 270 267 264 262 259 257 255 254 254 253 252 251 250 250 252 254 255
308 314 316 319 317 314 316 318 322 322 321 321 321 319 317 315 314 313 312 310 308 307 305 304 303 301 299 297 293 289 284 278 272 267 262 259 257 256 254 253 253 253 252 251 250 248 249 251 253
Height
5932 5932 5932 5932 5933 5932 5930 5929 5928 5927 5928 5929 5928 5927 5927 5927 5926 5926 5924 5921 5920 5918 5917 5916 5916 5916 5915 5914 5913 5913 5912 5911 5911 5910 5909 5908 5907 5906 5905 5904 5903 5902 5901 5900 5899 5897 5895 5894 5893
5932 5932 5932 5932 5932 5931 5930 5928 5927 5925 5926 5927 5927 5927 5927 5925 5924 5923 5922 5921 5919 5918 5917 5916 5916 5915 5914 5913 5912 5912 5911 5910 5909 5908 5908 5907 5906 5905 5904 5903 5902 5901 5900 5899 5898 5896 5895 5894 5892
5932 5932 5932 5931 5930 5930 5929 5928 5926 5923 5923 5925 5926 5926 5926 5924 5923 5922 5922 5920 5919 5918 5916 5916 5915 5914 5913 5912 5911 5910 5909 5908 5908 5907 5906 5905 5904 5903 5902 5901 5901 5900 5899 5898 5897 5896 5894 5893 5892
5931 5931 5931 5931 5928 5927 5926 5925 5923 5921 5921 5922 5923 5924 5924 5923 5921 5920 5920 5919 5918 5917 5916 5915 5914 5913 5912 5911 5910 5909 5908 5907 5906 5905 5903 5902 5901 5900 5900 5899 5898 5898 5897 5896 5895 5894 5893 5892 5891
5930 5931 5930 5929 5927 5924 5922 5921 5921 5919 5918 5918 5920 5921 5922 5922 5919 5918 5918 5917 5916 5915 5914 5913 5912 5911 5910 5909 5908 5907 5906 5905 5903 5902 5901 5899 5898 5897 5897 5896 5895 5895 5894 5894 5893 5892 5891 5890 5889
5928 5929 5930 5928 5924 5921 5919 5919 5918 5915 5914 5915 5918 5919 5921 5921 5918 5917 5917 5916 5915 5914 5913 5911 5910 5909 5908 5907 5906 5904 5903 5902 5900 5898 5897 5896 5894 5893 5893 5892 5891 5891 5891 5890 5890 5889 5889 5888 5887
5926 5927 5927 5926 5922 5920 5918 5918 5916 5915 5914 5915 5916 5917 5918 5920 5918 5916 5915 5914 5913 5912 5911 5910 5908 5907 5906 5904 5903 5901 5900 5898 5896 5894 5892 5891 5890 5889 5888 5887 5887 5886 5886 5886 5886 5886 5885 5884 5883
5922 5925 5924 5923 5919 5918 5917 5917 5915 5914 5913 5914 5914 5915 5916 5917 5917 5915 5913 5912 5912 5910 5909 5908 5906 5904 5903 5901 5899 5897 5896 5893 5891 5889 5887 5886 5885 5883 5882 5882 5881 5881 5880 5880 5880 5880 5880 5879 5878
5918 5922 5922 5919 5916 5915 5915 5915 5913 5912 5912 5911 5912 5914 5914 5914 5914 5915 5914 5911 5909 5908 5906 5904 5903 5901 5898 5896 5895 5893 5890 5888 5886 5884 5882 5880 5879 5878 5876 5876 5875 5874 5874 5874 5874 5874 5874 5873 5872
5915 5917 5919 5916 5913 5911 5911 5912 5911 5909 5908 5908 5909 5910 5911 5911 5910 5912 5913 5911 5906 5905 5903 5900 5898 5896 5894 5891 5889 5887 5885 5883 5880 5878 5876 5874 5873 5871 5870 5869 5868 5867 5867 5867 5867 5867 5867 5866 5865
5910 5912 5914 5911 5909 5908 5908 5909 5908 5906 5905 5906 5906 5907 5907 5907 5907 5906 5908 5908 5905 5901 5898 5895 5892 5890 5888 5885 5883 5881 5879 5876 5874 5872 5870 5868 5866 5864 5863 5863 5862 5861 5861 5861 5861 5861 5860 5859 5859
5907 5908 5908 5907 5905 5904 5904 5904 5905 5903 5903 5903 5903 5903 5904 5904 5903 5901 5900 5900 5899 5895 5891 5887 5884 5882 5880 5878 5876 5874 5872 5870 5867 5865 5863 5861 5860 5858 5857 5856 5855 5854 5854 5854 5854 5854 5854 5853 5853
5902 5903 5903 5903 5902 5901 5901 5901 5901 5901 5901 5899 5898 5898 5898 5899 5898 5895 5892 5889 5888 5887 5883 5879 5875 5872 5871 5869 5867 5866 5865 5863 5861 5859 5857 5855 5853 5851 5851 5850 5849 5849 5849 5849 5849 5849 5848 5848 5847
5897 5897 5899 5900 5900 5899 5898 5898 5898 5898 5896 5895 5894 5893 5893 5892 5889 5887 5885 5881 5878 5874 5871 5868 5863 5860 5860 5859 5858 5858 5857 5856 5854 5853 5851 5849 5847 5846 5845 5844 5844 5843 5843 5843 5843 5843 5843 5842 5842
5892 5893 5894 5893 5892 5892 5892 5892 5894 5895 5891 5890 5889 5888 5887 5883 5882 5879 5877 5874 5870 5863 5856 5854 5852 5849 5847 5847 5847 5847 5847 5847 5846 5845 5844 5842 5840 5839 5838 5838 5838 5838 5838 5838 5838 5838 5838 5837 5837
5887 5887 5888 5888 5887 5886 5886 5888 5891 5889 5887 5886 5884 5883 5879 5877 5876 5874 5872 5869 5864 5855 5847 5840 5837 5835 5833 5832 5835 5837 5837 5837 5837 5837 5836 5835 5834 5833 5833 5833 5832 5832 5833 5833 5833 5833 5833 5833 5833
5883 5884 5883 5883 5882 5881 5881 5884 5885 5883 5883 5882 5881 5878 5875 5873 5871 5869 5867 5864 5857 5850 5843 5833 5827 5823 5822 5823 5825 5827 5828 5830 5830 5830 5829 5828 5828 5827 5827 5827 5827 5827 5827 5827 5827 5827 5827 5828 5828
5880 5880 5879 5879 5879 5879 5879 5879 5879 5879 5879 5878 5877 5874 5871 5868 5866 5863 5860 5856 5852 5845 5836 5829 5823 5815 5815 5817 5819 5820 5821 5823 5824 5824 5823 5822 5822 5822 5822 5822 5821 5821 5821 5821 5821 5822 5822 5823 5824
5876 5876 5876 5877 5877 5877 5875 5874 5874 5874 5874 5874 5873 5870 5867 5863 5861 5858 5854 5850 5845 5838 5831 5825 5819 5813 5810 5810 5812 5814 5816 5817 5818 5818 5817 5817 5816 5816 5816 5816 5816 5816 5816 5816 5817 5817 5817 5818 5819
5873 5873 5873 5874 5874 5873 5872 5871 5870 5870 5870 5870 5868 5866 5863 5859 5857 5854 5850 5845 5841 5836 5828 5822 5816 5813 5811 5810 5810 5811 5810 5811 5812 5813 5812 5811 5810 5810 5811 5811 5811 5811 5811 5812 5812 5812 5813 5814 5815
5870 5870 5869 5870 5870 5870 5869 5868 5867 5867 5866 5864 5862 5859 5856 5853 5851 5848 5844 5840 5836 5832 5827 5822 5816 5813 5810 5808 5806 5805 5804 5805 5806 5806 5805 5804 5804 5804 5804 5805 5805 5805 5806 5806 5807 5807 5808 5808 5810
5867 5867 5866 5866 5866 5867 5867 5864 5863 5862 5860 5858 5855 5852 5849 5847 5844 5842 5839 5835 5831 5826 5821 5817 5813 5809 5806 5803 5802 5801 5800 5799 5799 5799 5799 5798 5798 5797 5798 5798 5798 5799 5799 5800 5801 5801 5802 5802 5804
5865 5864 5863 5863 5862 5863 5862 5860 5858 5855 5852 5849 5847 5844 5841 5839 5836 5834 5832 5828 5824 5819 5814 5810 5807 5804 5801 5798 5797 5796 5794 5793 5793 5792 5792 5792 5791 5791 5791 5791 5791 5791 5792 5793 5794 5794 5795 5796 5797
5863 5862 5861 5860 5860 5860 5858 5856 5854 5850 5846 5842 5840 5837 5833 5831 5828 5826 5823 5819 5815 5810 5806 5802 5799 5796 5794 5792 5790 5789 5788 5787 5786 5784 5784 5784 5784 5784 5784 5784 5783 5783 5784 5784 5785 5786 5787 5789 5790
5862 5861 5860 5858 5857 5856 5854 5852 5850 5846 5842 5839 5835 5832 5828 5825 5821 5817 5813 5809 5804 5800 5796 5792 5789 5787 5784 5782 5780 5779 5778 5777 5776 5775 5774 5774 5774 5774 5775 5775 5775 5775 5775 5776 5776 5777 5778 5780 5781
5860 5859 5858 5856 5854 5852 5850 5847 5845 5841 5837 5834 5830 5826 5822 5817 5812 5807 5803 5798 5794 5790 5786 5782 5779 5775 5772 5769 5767 5765 5764 5763 5762 5762 5761 5761 5761 5762 5763 5764 5765 5766 5766 5766 5767 5768 5769 5770 5772
5859 5858 5856 5854 5851 5849 5846 5844 5840 5835 5832 5827 5822 5817 5812 5806 5801 5794 5788 5782 5777 5774 5770 5767 5764 5761 5758 5754 5751 5749 5747 5746 5746 5745 5745 5746 5746 5747 5748 5749 5751 5753 5754 5756 5757 5757 5759 5760 5762
5857 5855 5853 5851 5848 5845 5842 5839 5835 5831 5826 5821 5815 5809 5803 5797 5791 5783 5776 5769 5763 5756 5751 5746 5744 5742 5739 5736 5733 5729 5727 5725 5724 5725 5726 5727 5728 5730 5731 5733 5735 5737 5740 5742 5744 5746 5747 5749 5752
5855 5853 5850 5847 5844 5840 5837 5836 5830 5825 5820 5815 5808 5802 5796 5789 5782 5775 5767 5759 5750 5741 5732 5725 5720 5716 5713 5711 5709 5706 5704 5702 5702 5702 5703 5705 5707 5710 5712 5714 5716 5719 5723 5726 5729 5733 5735 5738 5740
5852 5850 5847 5844 5840 5836 5832 5831 5823 5818 5812 5805 5799 5791 5784 5777 5770 5762 5754 5745 5736 5727 5717 5707 5698 5691 5686 5682 5679 5677 5675 5674 5674 5676 5677 5680 5683 5686 5689 5693 5696 5699 5703 5708 5712 5717 5721 5724 5728